Regional Weather Roundup
Issued by NWS

Home | Current Version | Previous Version | Text Only | Print | Product List | Glossary Off
Versions: 1 2 3 4 5 6 7 8 9 10 11 12 13 14 15 16 17 18 19 20 21 22 23 24 25 26 27 28 29 30 31 32 33 34 35 36 37 38 39 40 41 42 43 44 45 46 47 48 49 50

000
ASUS43 KDMX 252303
RWRIA

WEATHER ROUNDUP FOR IOWA
NATIONAL WEATHER SERVICE DES MOINES IA
600 PM CDT MON JUL 25 2016

NOTE: "FAIR" INDICATES FEW OR NO CLOUDS BELOW 12,000 FEET WITH NO
SIGNIFICANT WEATHER AND/OR OBSTRUCTIONS TO VISIBILITY.

* - THESE STATIONS ARE NOT NWS STATIONS...THUS NOT UNDER NWS
QUALITY CONTROL.  THEY ALSO DO NOT REPORT WEATHER SUCH
AS PRECIPITATION OR FOG.

IAZ001>003-012>014-020>022-031>034-043>046-260000-
   NORTHWEST IOWA

CITY           SKY/WX    TMP DP  RH WIND       PRES   REMARKS
CARROLL *      SUNNY     84  64  51 VRB3      30.05F HX  86
CHEROKEE *     SUNNY     86  62  45 S3        30.06F HX  86
DENISON *      SUNNY     82  66  57 E6        30.04F HX  85
LE MARS *      SUNNY     84  64  51 CALM      30.06F HX  86
SHELDON *      SUNNY     84  64  51 SW5       30.06F HX  86
SIOUX CITY     SUNNY     88  60  38 SE6       30.04F HX  87
SPENCER        SUNNY     85  62  46 SW5       30.07F HX  85
STORM LAKE *   SUNNY     84  61  45 CALM      30.08F HX  84
$$

IAZ055>058-069>071-079>083-090>094-260000-
   SOUTHWEST IOWA

CITY           SKY/WX    TMP DP  RH WIND       PRES   REMARKS
ATLANTIC *     SUNNY     84  68  58 NE9       30.05F HX  87
CLARINDA *       N/A     86  66  51 MISG      30.05F HX  88
COUNCIL BLFS * SUNNY     84  66  54 NE7       30.05F HX  86
CRESTON *      SUNNY     82  64  54 NE13      30.06F HX  84
HARLAN  *      SUNNY     84  66  54 NE7       30.09S HX  86
LAMONI         SUNNY     84  69  60 NE10G17   30.03F HX  88
RED OAK *      SUNNY     84  66  54 NE9       30.04F HX  86
SHENANDOAH *   SUNNY     84  70  61 NE12      30.04S HX  88
$$

IAZ047>049-059>061-072>074-084-260000-
   CENTRAL IOWA

CITY           SKY/WX    TMP DP  RH WIND       PRES   REMARKS
AMES           SUNNY     85  65  51 N14       30.04S HX  86
ANKENY *         N/A    N/A N/A N/A MISG        N/A
BOONE *        SUNNY     84  64  51 N9        30.04F HX  86
CHARITON *       N/A    N/A N/A N/A MISG        N/A
DES MOINES     MOSUNNY   87  59  38 NE9G22    30.02F HX  86
GRINNELL*      SUNNY     82  62  49 N7        30.04F HX  83
KNOXVILLE *    SUNNY     84  61  45 N10       30.02F HX  84
MARSHALLTOWN   SUNNY     84  65  52 N10       30.03S HX  86
NEWTON *       SUNNY     84  63  48 NE10      30.03S HX  85
PELLA *        SUNNY     84  62  47 N6        30.04S HX  85
PERRY *          N/A     85  66  53 N5        30.05S HX  87
$$

IAZ004>006-015-016-023>025-035-036-260000-
   NORTH CENTRAL IOWA

CITY           SKY/WX    TMP DP  RH WIND       PRES   REMARKS
ALGONA *       SUNNY     84  64  51 VRB6      30.07F HX  86
ESTHERVILLE    SUNNY     84  64  50 NW3       30.07F HX  85
FORT DODGE *   SUNNY     82  64  54 NE5       30.06F HX  84
MASON CITY     SUNNY     83  64  52 N9        30.07F HX  84
FOREST CITY *    N/A     82  59  44 N8        30.07S HX  82
IOWA FALLS *     N/A     84  63  49 N9        30.06S HX  85
$$

IAZ007>011-017>019-026>030-037>042-050>054-066-260000-
   NORTHEAST IOWA

CITY           SKY/WX    TMP DP  RH WIND       PRES   REMARKS
CEDAR RAPIDS   MOSUNNY   83  66  56 N8        30.02S HX  85
CHARLES CITY * SUNNY     82  63  51 N9        30.05F HX  83
CLINTON *      MOSUNNY   82  67  60 MISG      30.01F HX  84
DECORAH *      SUNNY     81  63  54 N7        30.03S HX  82
DUBUQUE        MOSUNNY   82  64  54 N9        30.03F HX  83
MONTICELLO *   SUNNY     81  66  61 N5        30.02S HX  83
OELWEIN *      SUNNY     81  64  57 N9        30.03F HX  82
WATERLOO       SUNNY     83  62  49 N12       30.01F HX  84
$$

IAZ064-065-067-068-078-260000-
   EAST CENTRAL IOWA

CITY           SKY/WX    TMP DP  RH WIND       PRES   REMARKS
DAVENPORT      SUNNY     82  65  56 N7        30.01F HX  84
IOWA CITY      MOSUNNY   82  63  52 N8        30.02F HX  83
MT. PLEASANT * SUNNY     85  68  55 N7        30.02S HX  88
MUSCATINE *    MOSUNNY   84  66  54 N7G14     30.01S HX  86
QUAD CITIES    SUNNY     86  63  45 N9        30.00S HX  87
$$

IAZ062-063-075>077-085>089-095>099-260000-
   SOUTHEAST IOWA

CITY           SKY/WX    TMP DP  RH WIND       PRES   REMARKS
BURLINGTON     MOSUNNY   83  69  62 NE8       30.01S HX  86
FAIRFIELD *    CLOUDY    82  64  54 N10       30.02S HX  84
KEOKUK *       MOSUNNY   82  68  61 NE6       30.01S HX  85
CENTERVILLE *    N/A     82  64  54 N8        30.05S HX  84
OTTUMWA        CLOUDY    84  63  49 N9        30.01S HX  85
WASHINGTON *   SUNNY     82  68  61 N10       30.03S HX  85
$$

ABBREVIATIONS USED IN REMARKS
   TC - TEMPERATURES IN CELSIUS
  WCI - WIND CHILL INDEX
   HX - HEAT INDEX
  VSB - VISIBILITY
$$




USA.gov is the U.S. government's official web portal to all federal, state and local government web resources and services.